Other Public Products
Issued by NWS Grand Forks, ND

Home | Current Version | Previous Version | Graphics & Text | Print | Product List | Glossary On
Versions: 1 2 3 4 5 6 7 8 9 10 11 12 13 14 15 16 17 18 19 20 21 22 23 24 25 26 27 28 29 30 31 32 33 34 35 36 37 38 39 40 41 42 43 44 45 46 47 48 49 50
000
FPUS83 KFGF 181710
OPUFGF
PRAIRIE TO PINES WEATHER ROUNDUP
NATIONAL WEATHER SERVICE EASTERN NORTH DAKOTA/GRAND FORKS ND
1200 PM CDT FRI APR 18 2014

 **SATELLITE DATA USED TO AUGMENT SKY COVER AT AUTOMATED STATIONS**
 *****  WEATHER ACROSS EASTERN NORTH DAKOTA  *****

CITY           SKY/WX    TMP DP  RH WIND       PRES   REMARKS
GRAND FORKS    PTSUNNY   45  24  43 SE17G23   30.23F
GRAND FORKS AF SUNNY     46  21  36 SE20      30.21F
GRAND CITY NWS   N/A     46 N/A N/A SE16        N/A
BUXTON         NOT AVBL
DEVILS LAKE    PTSUNNY   43  23  45 SE26      30.11F
FARGO          CLOUDY    45  28  51 SE15      30.22F
WAHPETON ARPT  CLOUDY    43  25  49 SE23G31   30.22F
$$

 *****  WEATHER ACROSS CENTRAL AND WESTERN NORTH DAKOTA  *****

CITY           SKY/WX    TMP DP  RH WIND       PRES   REMARKS
JAMESTOWN      MOSUNNY   45  24  43 SE29G37   30.07F
BISMARCK       MOSUNNY   51  28  41 SE24G35   29.95F
MINOT          LGT RAIN  41  23  48 E30G40    29.96F
MINOT AFB      CLOUDY    40  26  56 SE24G35   29.96F
GARRISON         N/A     46  26  45 SE23G32   29.93F
WILLISTON      CLOUDY    45  27  49 SE17G28   29.81F
DICKINSON      PTSUNNY   51  31  46 SE21      29.79F
HETTINGER      MOSUNNY   50  33  52 SE17G28   29.82F
$$

 *****  OTHER OBSERVATIONS NORTHEAST NORTH DAKOTA  *****

CITY           SKY/WX    TMP DP  RH WIND       PRES   REMARKS
WALHALLA         N/A     43  16  33 SE17G25   30.22F
LANGDON        FAIR      45  16  31 SE29G35   30.16F
CAVALIER       FAIR      43  21  42 SE15G23   30.23F
GRAFTON        FAIR      45  19  36 SE18      30.23F
CANDO          CLOUDY    41  19  42 SE30G40   30.11F
FORT TOTTEN      N/A     43  23  45 SE17      29.95S
ROLLA          PTSUNNY   37  18  44 SE28G35   30.11F
RUGBY          FAIR      39  28  65 SE24G32   30.04F
 ***** THE ABOVE OBSERVATIONS ARE NON NWS ARE NOT QUALITY
        CONTROLLED AND MAY MIS-REPORT RAIN FOR SNOW...
$$

 *****  OTHER OBSERVATIONS SOUTHEAST NORTH DAKOTA *****

CITY           SKY/WX    TMP DP  RH WIND       PRES   REMARKS
COOPERSTOWN    PTSUNNY   41  28  60 SE30G36   30.13F
VALLEY CITY    CLOUDY    43  23  45 SE26G36   30.13F
OAKES          FAIR      46  30  53 E29G41    30.09F
GWINNER        PTSUNNY   45  28  53 E32       30.14F
SHEYENNE NWR     N/A     45  22  39 SE23      29.95S
BUFFALO        NOT AVBL
WYNDMERE       NOT AVBL
 ***** THE ABOVE OBSERVATIONS ARE NON NWS ARE NOT QUALITY
       CONTROLLED AND MAY MIS-REPORT RAIN FOR SNOW...
$$

  *****  WEATHER ACROSS NORTHERN MINNESOTA  *****

CITY           SKY/WX    TMP DP  RH WIND       PRES   REMARKS
FLAG ISLAND    SUNNY     37  19  48 SE7       30.34S
WARROAD        SUNNY     37  25  60 NE8       30.33S
ROSEAU         SUNNY     45  16  31 SE13      30.31S
HALLOCK        CLOUDY    45  18  33 SE16      30.25F
THF RVR FALLS  SUNNY     43  19  39 SE16G22   30.27F
HALSTAD          N/A     46  21  37 SE20        N/A
FOSSTON        MOSUNNY   45  23  42 SE13G20   30.27F
BAUDETTE       SUNNY     42  19  39 SE8       30.34R
WASKISH        SUNNY     46  18  31 SE12      30.32F
CROOKSTON      MOSUNNY   46  21  36 SE17      30.26F
$$
  *****  WEATHER ACROSS CENTRAL AND WEST MINNESOTA  *****

CITY           SKY/WX    TMP DP  RH WIND       PRES   REMARKS
BEMIDJI        MOSUNNY   43  20  40 SE14G22   30.29F
PARK RAPIDS    PTSUNNY   42  19  39 SE15      30.29F
WADENA         PTSUNNY   41  23  48 SE16      30.29S
DETROIT LAKES  MOSUNNY   41  23  48 SE17G23   30.26F
MOORHEAD       NOT AVBL
FERGUS FALLS   PTSUNNY   43  19  39 SE20G26   30.23F
ELBOW LAKE     FAIR      41  25  52 SE18G25   30.25F
MORRIS MN      PTSUNNY   41  32  70 SE23      30.24F
STAPLES        PTSUNNY   41  21  45 SE13      30.31F
WHEATON        PTSUNNY   45  32  61 SE26      30.24F
$$
  *****  WEATHER ELSEWHERE ACROSS MINNESOTA  *****

CITY           SKY/WX    TMP DP  RH WIND       PRES   REMARKS
DULUTH         SUNNY     36  18  48 E9        30.37S
INTRNTL FALLS  SUNNY     39  12  33 E12       30.37R
ELY            SUNNY     36  18  48 NE5       30.37F
CLOQUET        SUNNY     37  12  35 E6        30.37S
BRAINERD       CLOUDY    46  23  40 VRB7      30.34S
HIBBING        SUNNY     41  14  33 VRB5      30.36F
ALEXANDRIA     CLOUDY    39  28  64 SE16G22   30.29F
SAINT CLOUD    CLOUDY    39  26  59 SE12      30.35S
MINNEAPOLIS    MOSUNNY   44  28  53 SE7       30.37S
$$

  *****  WEATHER ACROSS SOUTH DAKOTA  *****

CITY           SKY/WX    TMP DP  RH WIND       PRES   REMARKS
SIOUX FALLS    MOSUNNY   56  33  42 SE22G29   30.15F
BROOKINGS      NOT AVBL
WATERTOWN      MOSUNNY   47  33  58 SE20G28   30.11F
HURON          SUNNY     58  37  45 S28G37    30.00F
SISSETON         N/A     42  33  70 S24G30    30.18F
ABERDEEN       MOSUNNY   53  35  50 SE21G36   30.02F
MITCHELL       SUNNY     60  38  43 SE28G35   30.03F
PIERRE         MOSUNNY   60  38  43 SE20G26   29.86F
MOBRIDGE       MOSUNNY   54  34  46 SE21G29   29.88F
RAPID CITY     PTSUNNY   62  41  46 SE14      29.77F
$$

  *****  SOME WEATHER IN NEARBY STATES *****

CITY           SKY/WX    TMP DP  RH WIND       PRES   REMARKS
GLASGOW MT     PTSUNNY   45  31  58 SE22      29.64S
GREAT FALLS MT CLOUDY    50  32  50 SW21G29   29.68S
CHEYENNE WY    CLOUDY    59  29  31 S15       30.00S
SCOTTSBLUFF NE PTSUNNY   66  41  40 SE9       29.90F
OMAHA NE       SUNNY     57  33  40 SE20      30.26F
DES MOINES IA  MOSUNNY   55  36  48 S8        30.32F
DAVENPORT IA   SUNNY     52  33  48 E5        30.37S
CHICAGO IL       N/A     50  34  54 NE9       30.36R
EAU CLAIRE WI  PTSUNNY   45  25  45 NE8       30.38F
LA CROSSE WI   SUNNY     46  27  47 S3        30.38S
$$

  *****  SOME NATIONAL WEATHER *****

CITY           SKY/WX    TMP DP  RH WIND       PRES   REMARKS
LA GUARDIA NY  CLOUDY    41  28  60 NE8       30.48F
RALEIGH NC     CLOUDY    56  38  50 N8        30.41F
ATLANTA GA     LGT RAIN  53  49  86 NE18      30.26F
NEW ORLEANS LA PTSUNNY   69  60  73 N14       30.09F
OKLAHOMA CITY  SUNNY     66  41  40 SE10      30.26F
ALBUQUERQUE NM PTSUNNY   63  26  24 VRB7      30.17F
SALT LAKE CITY CLOUDY    64  31  28 NW9       29.92R
LOS ANGELES CA PTSUNNY   66  52  60 SE6       29.93R
BOISE ID       PTSUNNY   52  37  56 NW14      30.02R
SEATTLE WA     PTSUNNY   49  38  65 S15       30.11R
$$

*** WEATHER ACROSS MANITOBA...SASKATCHEWAN AND ONTARIO ***
                ***ONTARIO***

CITY           SKY/WX    TMP DP  RH WIND       PRES   REMARKS
GERALDTON      MOSUNNY   34  18  51 NW5       30.35S
THUNDER BAY    PTSUNNY   36  25  64 CALM      30.41R
SIOUX LOOKOUT  MOSUNNY   37  10  32 VRB8      30.38S
TORONTO        CLOUDY    52  37  58 W5        30.25F
BIG TROUT LK   SUNNY     36  10  35 W8        30.38S
PICKLE LAKE    MOSUNNY   37   3  23 CALM      30.37S
DRYDEN         SUNNY     37   7  28 VRB2      30.37S
KENORA         NOT AVBL
$$
                *** MANITOBA***

CITY           SKY/WX    TMP DP  RH WIND       PRES   REMARKS
BRANDON        CLOUDY    39  18  41 SE20G29   30.15F
DAUPHIN        SUNNY     37  18  44 SE20      30.16F
ISLAND LAKE    NOT AVBL
PILOT MOUND      N/A     41  18  38 SE28G35     N/A
THE PAS        PTSUNNY   32  12  43 SE15G21   30.22F WCI  22
THOMPSON       MOSUNNY   37   9  30 SE9       30.34S
WINNIPEG       PTSUNNY   43  10  26 SE17G25   30.29F
LYNN LAKE      SUNNY     34   3  27 SE12G18   30.25F
CHURCHILL      SUNNY     16  10  79 E5        30.45S WCI   9
GILLAM         SUNNY     32  19  59 NE7       30.39F
$$
                ***SASKATCHEWAN***

CITY           SKY/WX    TMP DP  RH WIND       PRES   REMARKS
ESTEVAN        CLOUDY    37  25  60 SE22G39   29.86F
KINDERSLEY     CLOUDY    41  39  93 SE17      29.60F
LLOYDMINSTER   CLOUDY    30  28  93 E14G22    29.68S WCI  20
PRINCE ALBERT  LGT SNOW  30  27  86 E20G29    29.92S VSB 1   WCI  18
REGINA         FLURRIES  34  27  75 SE29G46   29.82F WCI  20



USA.gov is the U.S. government's official web portal to all federal, state and local government web resources and services.